Time,TemperatureF,DewpointF,PressureIn,WindDirection,WindDirectionDegrees,WindSpeedMPH,WindSpeedGustMPH,Humidity,HourlyPrecipIn,Conditions,Clouds,dailyrainin,SolarRadiationWatts/m^2,SoftwareType,DateUTC
2013-07-29 00:00:00,56.6,50.8,30.05,SW,224,0.0,0.0,81,0.00,,,0.00,0,Wunderground v.1.15,2013-07-29 05:00:00,
2013-07-29 00:10:00,56.2,50.4,30.05,SW,224,0.0,0.0,81,0.00,,,0.00,0,Wunderground v.1.15,2013-07-29 05:10:00,
2013-07-29 00:15:00,56.0,50.6,30.05,SW,224,0.0,1.0,82,0.00,,,0.00,0,Wunderground v.1.15,2013-07-29 05:15:00,
2013-07-29 00:20:00,55.9,50.5,30.05,SW,224,1.0,1.0,82,0.00,,,0.00,0,Wunderground v.1.15,2013-07-29 05:20:00,
2013-07-29 00:25:00,56.0,50.6,30.04,SW,224,1.0,1.0,82,0.00,,,0.00,0,Wunderground v.1.15,2013-07-29 05:25:00,
2013-07-29 00:30:00,55.9,50.5,30.05,SW,224,1.0,2.0,82,0.00,,,0.00,0,Wunderground v.1.15,2013-07-29 05:30:00,
2013-07-29 00:35:00,55.9,50.5,30.04,SW,224,2.0,2.0,82,0.00,,,0.00,0,Wunderground v.1.15,2013-07-29 05:35:00,
2013-07-29 00:45:00,55.4,50.0,30.04,SW,224,2.0,2.0,82,0.00,,,0.00,0,Wunderground v.1.15,2013-07-29 05:45:00,
2013-07-29 00:50:00,55.0,49.9,30.04,SW,224,2.0,2.0,83,0.00,,,0.00,0,Wunderground v.1.15,2013-07-29 05:50:00,
2013-07-29 00:55:00,55.0,49.9,30.05,SW,224,2.0,2.0,83,0.00,,,0.00,0,Wunderground v.1.15,2013-07-29 05:55:00,
2013-07-29 01:00:00,55.3,50.2,30.04,SW,224,2.0,2.0,83,0.00,,,0.00,0,Wunderground v.1.15,2013-07-29 06:00:00,
2013-07-29 01:05:00,54.9,49.5,30.04,SW,224,1.0,2.0,82,0.00,,,0.00,0,Wunderground v.1.15,2013-07-29 06:05:00,
2013-07-29 01:15:00,53.5,48.8,30.04,SW,224,2.0,2.0,84,0.00,,,0.00,0,Wunderground v.1.15,2013-07-29 06:15:00,
2013-07-29 01:25:00,52.3,48.2,30.04,SW,224,2.0,2.0,86,0.00,,,0.00,0,Wunderground v.1.15,2013-07-29 06:25:00,
2013-07-29 01:30:00,52.0,48.3,30.04,SW,224,2.0,2.0,87,0.00,,,0.00,0,Wunderground v.1.15,2013-07-29 06:30:00,
2013-07-29 01:35:00,52.0,48.6,30.04,SW,224,2.0,2.0,88,0.00,,,0.00,0,Wunderground v.1.15,2013-07-29 06:35:00,
2013-07-29 01:40:00,52.1,48.7,30.04,SW,224,1.0,1.0,88,0.00,,,0.00,0,Wunderground v.1.15,2013-07-29 06:40:00,
2013-07-29 01:50:00,52.8,49.0,30.04,SW,224,1.0,1.0,87,0.00,,,0.00,0,Wunderground v.1.15,2013-07-29 06:50:00,
2013-07-29 01:55:00,53.2,49.4,30.04,SW,224,1.0,1.0,87,0.00,,,0.00,0,Wunderground v.1.15,2013-07-29 06:55:00,
2013-07-29 02:05:00,52.9,49.1,30.04,SSE,161,2.0,2.0,87,0.00,,,0.00,0,Wunderground v.1.15,2013-07-29 07:05:00,
2013-07-29 02:15:00,53.0,49.2,30.04,South,169,2.0,2.0,87,0.00,,,0.00,0,Wunderground v.1.15,2013-07-29 07:15:00,
2013-07-29 02:20:00,53.3,49.2,30.04,South,191,2.0,4.0,86,0.00,,,0.00,0,Wunderground v.1.15,2013-07-29 07:20:00,
2013-07-29 02:25:00,53.0,48.9,30.04,South,190,2.0,4.0,86,0.00,,,0.00,0,Wunderground v.1.15,2013-07-29 07:25:00,
2013-07-29 02:30:00,52.7,48.6,30.04,South,182,2.0,2.0,86,0.00,,,0.00,0,Wunderground v.1.15,2013-07-29 07:30:00,
2013-07-29 02:40:00,53.0,48.9,30.04,SSW,192,2.0,2.0,86,0.00,,,0.00,0,Wunderground v.1.15,2013-07-29 07:40:00,
2013-07-29 02:45:00,53.2,48.8,30.04,SSW,192,2.0,2.0,85,0.00,,,0.00,0,Wunderground v.1.15,2013-07-29 07:45:00,
2013-07-29 02:50:00,52.7,48.0,30.04,South,186,2.0,2.0,84,0.00,,,0.00,0,Wunderground v.1.15,2013-07-29 07:50:00,
2013-07-29 02:55:00,51.6,47.9,30.04,South,169,2.0,2.0,87,0.00,,,0.00,0,Wunderground v.1.15,2013-07-29 07:55:00,
2013-07-29 03:05:00,51.3,48.2,30.04,SSE,167,3.0,3.0,89,0.00,,,0.00,0,Wunderground v.1.15,2013-07-29 08:05:00,
2013-07-29 03:15:00,51.7,48.3,30.04,SSE,167,3.0,3.0,88,0.00,,,0.00,0,Wunderground v.1.15,2013-07-29 08:15:00,
2013-07-29 03:20:00,51.7,48.6,30.04,SSE,167,2.0,2.0,89,0.00,,,0.00,0,Wunderground v.1.15,2013-07-29 08:20:00,
2013-07-29 03:25:00,51.8,48.7,30.04,SSE,167,1.0,2.0,89,0.00,,,0.00,0,Wunderground v.1.15,2013-07-29 08:25:00,
2013-07-29 03:30:00,52.3,49.2,30.04,SSE,167,2.0,2.0,89,0.00,,,0.00,0,Wunderground v.1.15,2013-07-29 08:30:00,
2013-07-29 03:40:00,51.9,48.5,30.04,SSE,166,3.0,3.0,88,0.00,,,0.00,0,Wunderground v.1.15,2013-07-29 08:40:00,
2013-07-29 03:45:00,50.6,47.2,30.04,SSE,166,3.0,3.0,88,0.00,,,0.00,0,Wunderground v.1.15,2013-07-29 08:45:00,
2013-07-29 03:55:00,50.0,46.6,30.04,SSE,167,1.0,2.0,88,0.00,,,0.00,0,Wunderground v.1.15,2013-07-29 08:55:00,
2013-07-29 04:00:00,50.0,47.2,30.04,SSE,167,1.0,2.0,90,0.00,,,0.00,0,Wunderground v.1.15,2013-07-29 09:00:00,
2013-07-29 04:05:00,50.5,47.7,30.04,South,173,2.0,2.0,90,0.00,,,0.00,0,Wunderground v.1.15,2013-07-29 09:05:00,
2013-07-29 04:15:00,50.6,47.8,30.04,South,178,2.0,3.0,90,0.00,,,0.00,0,Wunderground v.1.15,2013-07-29 09:15:00,
2013-07-29 04:20:00,51.0,47.9,30.04,South,179,2.0,2.0,89,0.00,,,0.00,0,Wunderground v.1.15,2013-07-29 09:20:00,
2013-07-29 04:30:00,49.7,46.3,30.04,South,169,2.0,3.0,88,0.00,,,0.00,0,Wunderground v.1.15,2013-07-29 09:30:00,
2013-07-29 04:35:00,49.2,46.1,30.04,SSE,166,3.0,4.0,89,0.00,,,0.00,0,Wunderground v.1.15,2013-07-29 09:35:00,
2013-07-29 04:40:00,49.5,47.3,30.05,South,175,4.0,4.0,92,0.00,,,0.00,0,Wunderground v.1.15,2013-07-29 09:40:00,
2013-07-29 04:50:00,49.9,46.8,30.04,South,173,3.0,3.0,89,0.00,,,0.00,0,Wunderground v.1.15,2013-07-29 09:50:00,
2013-07-29 04:55:00,49.8,46.7,30.04,South,174,3.0,3.0,89,0.00,,,0.00,0,Wunderground v.1.15,2013-07-29 09:55:00,
2013-07-29 05:05:00,48.7,45.6,30.04,South,171,3.0,3.0,89,0.00,,,0.00,0,Wunderground v.1.15,2013-07-29 10:05:00,
2013-07-29 05:15:00,47.8,45.0,30.04,SSE,165,4.0,4.0,90,0.00,,,0.00,0,Wunderground v.1.15,2013-07-29 10:15:00,
2013-07-29 05:20:00,47.8,45.3,30.05,SSE,165,4.0,4.0,91,0.00,,,0.00,0,Wunderground v.1.15,2013-07-29 10:20:00,
2013-07-29 05:25:00,47.9,45.4,30.05,SSE,157,4.0,5.0,91,0.00,,,0.00,0,Wunderground v.1.15,2013-07-29 10:25:00,
2013-07-29 05:35:00,48.0,45.8,30.04,SE,142,5.0,5.0,92,0.00,,,0.00,0,Wunderground v.1.15,2013-07-29 10:35:00,
2013-07-29 05:40:00,48.4,46.5,30.04,SE,141,5.0,5.0,93,0.00,,,0.00,0,Wunderground v.1.15,2013-07-29 10:40:00,
2013-07-29 05:45:00,48.7,46.8,30.04,SE,142,4.0,5.0,93,0.00,,,0.00,0,Wunderground v.1.15,2013-07-29 10:45:00,
2013-07-29 05:50:00,48.5,46.3,30.05,SE,144,4.0,5.0,92,0.00,,,0.00,0,Wunderground v.1.15,2013-07-29 10:50:00,
2013-07-29 06:00:00,48.4,46.2,30.04,SE,144,4.0,4.0,92,0.00,,,0.00,0,Wunderground v.1.15,2013-07-29 11:00:00,
2013-07-29 06:05:00,48.5,46.3,30.05,SE,144,4.0,4.0,92,0.00,,,0.00,0,Wunderground v.1.15,2013-07-29 11:05:00,
2013-07-29 06:15:00,47.8,45.6,30.04,SE,144,4.0,5.0,92,0.00,,,0.00,9,Wunderground v.1.15,2013-07-29 11:15:00,
2013-07-29 06:20:00,47.5,45.6,30.05,SE,144,4.0,4.0,93,0.00,,,0.00,18,Wunderground v.1.15,2013-07-29 11:20:00,
2013-07-29 06:25:00,47.6,45.7,30.05,SE,144,3.0,4.0,93,0.00,,,0.00,28,Wunderground v.1.15,2013-07-29 11:25:00,
2013-07-29 06:35:00,48.4,46.8,30.05,SE,144,2.0,2.0,94,0.00,,,0.00,32,Wunderground v.1.15,2013-07-29 11:35:00,
2013-07-29 06:40:00,48.7,46.8,30.05,SE,144,2.0,4.0,93,0.00,,,0.00,33,Wunderground v.1.15,2013-07-29 11:40:00,
2013-07-29 06:45:00,48.5,46.0,30.05,SE,144,3.0,4.0,91,0.00,,,0.00,53,Wunderground v.1.15,2013-07-29 11:45:00,
2013-07-29 06:50:00,48.3,46.1,30.05,SE,144,4.0,4.0,92,0.00,,,0.00,95,Wunderground v.1.15,2013-07-29 11:50:00,
2013-07-29 07:00:00,49.5,47.6,30.05,SE,144,3.0,3.0,93,0.00,,,0.00,146,Wunderground v.1.15,2013-07-29 12:00:00,
2013-07-29 07:05:00,50.4,48.5,30.05,SE,144,3.0,4.0,93,0.00,,,0.00,153,Wunderground v.1.15,2013-07-29 12:05:00,
2013-07-29 07:15:00,51.9,49.4,30.05,SE,143,3.0,4.0,91,0.00,,,0.00,218,Wunderground v.1.15,2013-07-29 12:15:00,
2013-07-29 07:20:00,52.8,49.9,30.05,SE,143,3.0,3.0,90,0.00,,,0.00,167,Wunderground v.1.15,2013-07-29 12:20:00,
2013-07-29 07:25:00,53.6,50.4,30.05,SE,143,3.0,3.0,89,0.00,,,0.00,230,Wunderground v.1.15,2013-07-29 12:25:00,
2013-07-29 07:35:00,54.9,51.7,30.06,SE,143,3.0,3.0,89,0.00,,,0.00,155,Wunderground v.1.15,2013-07-29 12:35:00,
2013-07-29 07:40:00,55.8,52.3,30.06,SE,144,2.0,3.0,88,0.00,,,0.00,158,Wunderground v.1.15,2013-07-29 12:40:00,
2013-07-29 07:45:00,56.4,52.6,30.06,SE,144,2.0,3.0,87,0.00,,,0.00,174,Wunderground v.1.15,2013-07-29 12:45:00,
2013-07-29 07:55:00,57.7,52.9,30.06,SSE,149,3.0,4.0,84,0.00,,,0.00,178,Wunderground v.1.15,2013-07-29 12:55:00,
2013-07-29 08:00:00,58.0,52.9,30.06,SSE,149,4.0,5.0,83,0.00,,,0.00,202,Wunderground v.1.15,2013-07-29 13:00:00,
2013-07-29 08:05:00,58.3,53.2,30.06,SSE,155,4.0,7.0,83,0.00,,,0.00,229,Wunderground v.1.15,2013-07-29 13:05:00,
2013-07-29 08:15:00,59.0,52.8,30.06,South,177,4.0,4.0,80,0.00,,,0.00,316,Wunderground v.1.15,2013-07-29 13:15:00,
2013-07-29 08:20:00,59.4,53.2,30.07,South,186,3.0,4.0,80,0.00,,,0.00,288,Wunderground v.1.15,2013-07-29 13:20:00,
2013-07-29 08:30:00,60.1,53.2,30.07,South,171,3.0,3.0,78,0.00,,,0.00,455,Wunderground v.1.15,2013-07-29 13:30:00,
2013-07-29 08:35:00,61.2,53.9,30.07,SSE,165,3.0,6.0,77,0.00,,,0.00,367,Wunderground v.1.15,2013-07-29 13:35:00,
2013-07-29 08:40:00,61.9,52.8,30.07,SSE,166,4.0,4.0,72,0.00,,,0.00,387,Wunderground v.1.15,2013-07-29 13:40:00,
2013-07-29 08:45:00,62.3,53.2,30.07,South,178,4.0,4.0,72,0.00,,,0.00,315,Wunderground v.1.15,2013-07-29 13:45:00,
2013-07-29 08:55:00,62.6,52.7,30.07,South,186,4.0,4.0,70,0.00,,,0.00,408,Wunderground v.1.15,2013-07-29 13:55:00,
2013-07-29 09:00:00,62.8,52.9,30.07,South,179,4.0,4.0,70,0.00,,,0.00,483,Wunderground v.1.15,2013-07-29 14:00:00,
2013-07-29 09:05:00,63.5,52.7,30.07,SW,217,3.0,4.0,68,0.00,,,0.00,269,Wunderground v.1.15,2013-07-29 14:05:00,
2013-07-29 09:15:00,62.7,52.4,30.08,South,171,4.0,6.0,69,0.00,,,0.00,457,Wunderground v.1.15,2013-07-29 14:15:00,
2013-07-29 09:25:00,64.1,53.3,30.08,South,190,4.0,7.0,68,0.00,,,0.00,591,Wunderground v.1.15,2013-07-29 14:25:00,
2013-07-29 09:35:00,64.8,52.3,30.08,South,185,4.0,7.0,64,0.00,,,0.00,450,Wunderground v.1.15,2013-07-29 14:35:00,
2013-07-29 09:40:00,65.2,52.3,30.07,SSW,205,4.0,4.0,63,0.00,,,0.00,388,Wunderground v.1.15,2013-07-29 14:40:00,
2013-07-29 09:50:00,65.2,52.7,30.08,South,189,5.0,6.0,64,0.00,,,0.00,401,Wunderground v.1.15,2013-07-29 14:50:00,
2013-07-29 09:55:00,65.7,53.2,30.07,South,190,5.0,8.0,64,0.00,,,0.00,496,Wunderground v.1.15,2013-07-29 14:55:00,
2013-07-29 10:05:00,66.8,53.4,30.07,SW,217,5.0,6.0,62,0.00,,,0.00,573,Wunderground v.1.15,2013-07-29 15:05:00,
2013-07-29 10:15:00,67.2,53.7,30.07,SE,144,5.0,7.0,62,0.00,,,0.00,721,Wunderground v.1.15,2013-07-29 15:15:00,
2013-07-29 10:20:00,67.9,53.5,30.06,SSE,157,5.0,5.0,60,0.00,,,0.00,700,Wunderground v.1.15,2013-07-29 15:20:00,
2013-07-29 10:30:00,68.8,52.9,30.06,SSE,147,6.0,9.0,57,0.00,,,0.00,492,Wunderground v.1.15,2013-07-29 15:30:00,
2013-07-29 10:35:00,68.6,52.8,30.06,SSW,203,6.0,9.0,57,0.00,,,0.00,731,Wunderground v.1.15,2013-07-29 15:35:00,
2013-07-29 10:40:00,68.8,52.9,30.06,South,179,5.0,5.0,57,0.00,,,0.00,754,Wunderground v.1.15,2013-07-29 15:40:00,
2013-07-29 10:50:00,69.9,51.5,30.06,SE,139,6.0,11.0,52,0.00,,,0.00,754,Wunderground v.1.15,2013-07-29 15:50:00,
2013-07-29 10:55:00,69.8,51.4,30.06,SSE,150,8.0,14.0,52,0.00,,,0.00,772,Wunderground v.1.15,2013-07-29 15:55:00,
2013-07-29 11:00:00,70.2,51.2,30.06,South,170,9.0,9.0,51,0.00,,,0.00,766,Wunderground v.1.15,2013-07-29 16:00:00,
2013-07-29 11:10:00,70.3,52.9,30.05,SSE,167,8.0,11.0,54,0.00,,,0.00,788,Wunderground v.1.15,2013-07-29 16:10:00,
2013-07-29 11:15:00,70.3,50.8,30.05,SE,144,8.0,11.0,50,0.00,,,0.00,795,Wunderground v.1.15,2013-07-29 16:15:00,
2013-07-29 11:20:00,69.7,50.8,30.05,SE,126,11.0,11.0,51,0.00,,,0.00,810,Wunderground v.1.15,2013-07-29 16:20:00,
2013-07-29 11:25:00,70.3,51.3,30.05,SSE,155,12.0,12.0,51,0.00,,,0.00,828,Wunderground v.1.15,2013-07-29 16:25:00,
2013-07-29 11:30:00,70.1,50.6,30.05,SSE,150,12.0,16.0,50,0.00,,,0.00,745,Wunderground v.1.15,2013-07-29 16:30:00,
2013-07-29 11:35:00,70.3,51.3,30.05,SE,134,13.0,16.0,51,0.00,,,0.00,831,Wunderground v.1.15,2013-07-29 16:35:00,
2013-07-29 11:45:00,70.5,51.5,30.05,SE,144,11.0,12.0,51,0.00,,,0.00,849,Wunderground v.1.15,2013-07-29 16:45:00,
2013-07-29 11:50:00,71.0,50.3,30.05,SSE,152,10.0,10.0,48,0.00,,,0.00,867,Wunderground v.1.15,2013-07-29 16:50:00,
2013-07-29 11:55:00,71.3,51.7,30.05,SSE,166,7.0,10.0,50,0.00,,,0.00,916,Wunderground v.1.15,2013-07-29 16:55:00,
2013-07-29 12:05:00,71.8,51.6,30.04,South,178,7.0,7.0,49,0.00,,,0.00,577,Wunderground v.1.15,2013-07-29 17:05:00,
2013-07-29 12:15:00,71.9,51.7,30.05,SSW,202,6.0,6.0,49,0.00,,,0.00,663,Wunderground v.1.15,2013-07-29 17:15:00,
2013-07-29 12:25:00,72.3,52.1,30.04,South,173,7.0,7.0,49,0.00,,,0.00,557,Wunderground v.1.15,2013-07-29 17:25:00,
2013-07-29 12:30:00,72.1,51.9,30.04,SSE,159,7.0,8.0,49,0.00,,,0.00,640,Wunderground v.1.15,2013-07-29 17:30:00,
2013-07-29 12:35:00,72.6,52.3,30.03,South,178,7.0,11.0,49,0.00,,,0.00,640,Wunderground v.1.15,2013-07-29 17:35:00,
2013-07-29 12:45:00,72.6,51.2,30.03,SE,126,7.0,7.0,47,0.00,,,0.00,636,Wunderground v.1.15,2013-07-29 17:45:00,
2013-07-29 12:50:00,72.5,52.8,30.03,SE,144,8.0,8.0,50,0.00,,,0.00,636,Wunderground v.1.15,2013-07-29 17:50:00,
2013-07-29 12:55:00,72.7,52.4,30.03,SSE,147,8.0,14.0,49,0.00,,,0.00,796,Wunderground v.1.15,2013-07-29 17:55:00,
2013-07-29 13:05:00,71.8,50.5,30.03,SSE,148,9.0,14.0,47,0.00,,,0.00,761,Wunderground v.1.15,2013-07-29 18:05:00,
2013-07-29 13:15:00,72.3,52.6,30.02,SE,131,8.0,9.0,50,0.00,,,0.00,923,Wunderground v.1.15,2013-07-29 18:15:00,
2013-07-29 13:20:00,72.5,53.3,30.02,SSE,153,8.0,8.0,51,0.00,,,0.00,923,Wunderground v.1.15,2013-07-29 18:20:00,
2013-07-29 13:30:00,72.8,52.5,30.03,SSW,202,8.0,8.0,49,0.00,,,0.00,680,Wunderground v.1.15,2013-07-29 18:30:00,
2013-07-29 13:35:00,73.6,53.8,30.03,SSW,196,7.0,8.0,50,0.00,,,0.00,896,Wunderground v.1.15,2013-07-29 18:35:00,
2013-07-29 13:40:00,74.0,52.5,30.03,SSE,148,5.0,9.0,47,0.00,,,0.00,879,Wunderground v.1.15,2013-07-29 18:40:00,
2013-07-29 13:50:00,73.0,51.0,30.03,SSE,148,9.0,17.0,46,0.00,,,0.00,904,Wunderground v.1.15,2013-07-29 18:50:00,
2013-07-29 13:55:00,73.1,51.1,30.03,SSE,150,10.0,17.0,46,0.00,,,0.00,882,Wunderground v.1.15,2013-07-29 18:55:00,
2013-07-29 14:00:00,73.7,51.0,30.03,SSE,155,7.0,7.0,45,0.00,,,0.00,881,Wunderground v.1.15,2013-07-29 19:00:00,
2013-07-29 14:05:00,74.4,52.3,30.03,SSE,156,7.0,10.0,46,0.00,,,0.00,879,Wunderground v.1.15,2013-07-29 19:05:00,
2013-07-29 14:15:00,73.8,52.3,30.03,SSE,154,9.0,11.0,47,0.00,,,0.00,854,Wunderground v.1.15,2013-07-29 19:15:00,
2013-07-29 14:20:00,73.9,51.2,30.02,SSE,148,9.0,12.0,45,0.00,,,0.00,875,Wunderground v.1.15,2013-07-29 19:20:00,
2013-07-29 14:25:00,73.2,51.8,30.02,South,189,9.0,12.0,47,0.00,,,0.00,863,Wunderground v.1.15,2013-07-29 19:25:00,
2013-07-29 14:35:00,73.5,51.4,30.02,South,189,8.0,10.0,46,0.00,,,0.00,956,Wunderground v.1.15,2013-07-29 19:35:00,
2013-07-29 14:40:00,74.2,52.7,30.02,South,190,8.0,8.0,47,0.00,,,0.00,1011,Wunderground v.1.15,2013-07-29 19:40:00,
2013-07-29 14:45:00,75.0,53.4,30.02,SW,225,7.0,8.0,47,0.00,,,0.00,1088,Wunderground v.1.15,2013-07-29 19:45:00,
2013-07-29 14:55:00,73.9,52.4,30.02,SSE,167,9.0,9.0,47,0.00,,,0.00,425,Wunderground v.1.15,2013-07-29 19:55:00,
2013-07-29 15:00:00,73.4,51.9,30.02,South,170,9.0,9.0,47,0.00,,,0.00,373,Wunderground v.1.15,2013-07-29 20:00:00,
2013-07-29 15:06:00,73.0,51.6,30.02,SSE,166,7.0,9.0,47,0.00,,,0.00,355,Wunderground v.1.15,2013-07-29 20:06:00,
2013-07-29 15:15:00,72.8,50.8,30.02,SSE,168,6.0,6.0,46,0.00,,,0.00,313,Wunderground v.1.15,2013-07-29 20:15:00,
2013-07-29 15:25:00,72.2,53.1,30.02,SSE,148,7.0,7.0,51,0.00,,,0.00,323,Wunderground v.1.15,2013-07-29 20:25:00,
2013-07-29 15:30:00,72.4,51.6,30.03,SSE,160,6.0,8.0,48,0.00,,,0.00,332,Wunderground v.1.15,2013-07-29 20:30:00,
2013-07-29 15:35:00,72.4,52.2,30.03,SSE,155,6.0,8.0,49,0.00,,,0.00,357,Wunderground v.1.15,2013-07-29 20:35:00,
2013-07-29 15:40:00,72.4,52.2,30.02,South,169,6.0,6.0,49,0.00,,,0.00,350,Wunderground v.1.15,2013-07-29 20:40:00,
2013-07-29 15:50:00,72.5,52.8,30.02,South,172,5.0,7.0,50,0.00,,,0.00,338,Wunderground v.1.15,2013-07-29 20:50:00,
2013-07-29 16:00:00,72.1,51.9,30.02,SE,128,8.0,8.0,49,0.00,,,0.00,304,Wunderground v.1.15,2013-07-29 21:00:00,
2013-07-29 16:05:00,72.1,53.0,30.02,SSE,150,7.0,8.0,51,0.00,,,0.00,302,Wunderground v.1.15,2013-07-29 21:05:00,
2013-07-29 16:20:00,72.5,54.4,30.01,SSE,150,10.0,10.0,53,0.00,,,0.00,870,Wunderground v.1.15,2013-07-29 21:20:00,
2013-07-29 16:35:00,72.7,54.1,30.01,SSE,155,9.0,11.0,52,0.00,,,0.00,439,Wunderground v.1.15,2013-07-29 21:35:00,
2013-07-29 16:40:00,73.1,53.9,30.01,SE,143,8.0,11.0,51,0.00,,,0.00,548,Wunderground v.1.15,2013-07-29 21:40:00,
2013-07-29 16:55:00,74.0,54.2,30.01,SE,139,8.0,13.0,50,0.00,,,0.00,343,Wunderground v.1.15,2013-07-29 21:55:00,
2013-07-29 17:00:00,73.5,54.3,30.01,SE,142,10.0,12.0,51,0.00,,,0.00,346,Wunderground v.1.15,2013-07-29 22:00:00,
2013-07-29 17:05:00,73.5,54.3,30.01,South,176,9.0,12.0,51,0.00,,,0.00,272,Wunderground v.1.15,2013-07-29 22:05:00,
2013-07-29 17:15:00,73.0,54.3,30.01,SSE,164,7.0,10.0,52,0.00,,,0.00,315,Wunderground v.1.15,2013-07-29 22:15:00,
2013-07-29 17:20:00,72.9,53.2,30.00,SSW,197,7.0,7.0,50,0.00,,,0.00,229,Wunderground v.1.15,2013-07-29 22:20:00,
2013-07-29 17:25:00,72.7,53.5,30.01,SSE,159,8.0,10.0,51,0.00,,,0.00,220,Wunderground v.1.15,2013-07-29 22:25:00,
2013-07-29 17:35:00,72.8,53.6,30.01,SSE,161,9.0,9.0,51,0.00,,,0.00,265,Wunderground v.1.15,2013-07-29 22:35:00,
2013-07-29 17:40:00,72.9,53.7,30.01,SSE,147,8.0,8.0,51,0.00,,,0.00,141,Wunderground v.1.15,2013-07-29 22:40:00,
2013-07-29 17:45:00,72.5,53.9,30.01,SE,146,8.0,8.0,52,0.00,,,0.00,134,Wunderground v.1.15,2013-07-29 22:45:00,
2013-07-29 17:55:00,72.5,53.9,30.01,SSE,157,6.0,10.0,52,0.00,,,0.00,114,Wunderground v.1.15,2013-07-29 22:55:00,
2013-07-29 18:05:00,72.2,54.6,30.00,SSE,148,7.0,7.0,54,0.00,,,0.00,74,Wunderground v.1.15,2013-07-29 23:05:00,
2013-07-29 18:15:00,71.9,55.3,30.00,SSE,160,4.0,4.0,56,0.00,,,0.00,91,Wunderground v.1.15,2013-07-29 23:15:00,
2013-07-29 18:20:00,71.8,55.3,30.00,SW,220,3.0,3.0,56,0.00,,,0.00,102,Wunderground v.1.15,2013-07-29 23:20:00,
2013-07-29 18:25:00,71.5,55.9,30.00,SW,219,4.0,4.0,58,0.00,,,0.00,90,Wunderground v.1.15,2013-07-29 23:25:00,
2013-07-29 18:30:00,71.3,55.8,30.00,SW,221,4.0,4.0,58,0.00,,,0.00,93,Wunderground v.1.15,2013-07-29 23:30:00,
2013-07-29 18:40:00,71.1,55.6,30.01,SW,228,3.0,4.0,58,0.00,,,0.00,65,Wunderground v.1.15,2013-07-29 23:40:00,
2013-07-29 18:45:00,70.7,55.7,30.00,SW,217,5.0,5.0,59,0.00,,,0.00,51,Wunderground v.1.15,2013-07-29 23:45:00,
2013-07-29 18:50:00,70.0,56.4,30.01,SW,222,5.0,5.0,62,0.00,,,0.00,40,Wunderground v.1.15,2013-07-29 23:50:00,
2013-07-29 18:55:00,69.4,56.7,30.01,SW,236,5.0,5.0,64,0.00,,,0.00,35,Wunderground v.1.15,2013-07-29 23:55:00,
2013-07-29 19:05:00,68.6,57.2,30.01,SSW,210,3.0,5.0,67,0.00,,,0.00,40,Wunderground v.1.15,2013-07-30 00:05:00,
2013-07-29 19:15:00,67.9,56.9,30.01,SW,214,4.0,4.0,68,0.00,,,0.00,21,Wunderground v.1.15,2013-07-30 00:15:00,
2013-07-29 19:20:00,67.6,56.7,30.01,SW,224,4.0,4.0,68,0.00,,,0.00,19,Wunderground v.1.15,2013-07-30 00:20:00,
2013-07-29 19:25:00,67.5,57.4,30.01,SW,223,4.0,4.0,70,0.00,,,0.00,26,Wunderground v.1.15,2013-07-30 00:25:00,
2013-07-29 19:35:00,67.6,57.5,30.00,SW,219,1.0,3.0,70,0.00,,,0.00,30,Wunderground v.1.15,2013-07-30 00:35:00,
2013-07-29 19:40:00,67.7,57.6,30.00,SW,219,1.0,1.0,70,0.00,,,0.00,26,Wunderground v.1.15,2013-07-30 00:40:00,
2013-07-29 19:45:00,67.8,57.7,30.00,SW,219,0.0,1.0,70,0.00,,,0.00,25,Wunderground v.1.15,2013-07-30 00:45:00,
2013-07-29 19:50:00,67.8,57.7,30.00,SW,219,0.0,0.0,70,0.00,,,0.00,19,Wunderground v.1.15,2013-07-30 00:50:00,
2013-07-29 19:55:00,67.6,57.9,30.00,SW,219,1.0,2.0,71,0.00,,,0.00,14,Wunderground v.1.15,2013-07-30 00:55:00,
2013-07-29 20:05:00,67.6,57.9,30.00,SW,219,0.0,1.0,71,0.00,,,0.00,11,Wunderground v.1.15,2013-07-30 01:05:00,
2013-07-29 20:15:00,67.7,58.0,30.00,SW,219,0.0,0.0,71,0.00,,,0.00,7,Wunderground v.1.15,2013-07-30 01:15:00,
2013-07-29 20:25:00,67.6,58.2,30.01,SW,219,0.0,0.0,72,0.00,,,0.00,0,Wunderground v.1.15,2013-07-30 01:25:00,
2013-07-29 20:30:00,67.5,58.2,30.01,SW,219,0.0,0.0,72,0.00,,,0.00,0,Wunderground v.1.15,2013-07-30 01:30:00,
2013-07-29 20:35:00,67.3,58.0,30.01,SW,219,0.0,0.0,72,0.00,,,0.00,0,Wunderground v.1.15,2013-07-30 01:35:00,
2013-07-29 20:45:00,67.0,58.4,30.01,SW,219,0.0,1.0,74,0.00,,,0.00,0,Wunderground v.1.15,2013-07-30 01:45:00,
2013-07-29 20:50:00,66.9,58.3,30.01,SW,219,1.0,1.0,74,0.00,,,0.00,0,Wunderground v.1.15,2013-07-30 01:50:00,
2013-07-29 21:00:00,66.8,58.6,30.01,SW,219,0.0,0.0,75,0.00,,,0.00,0,Wunderground v.1.15,2013-07-30 02:00:00,
2013-07-29 21:05:00,66.8,58.2,30.01,SW,219,0.0,1.0,74,0.00,,,0.00,0,Wunderground v.1.15,2013-07-30 02:05:00,
2013-07-29 21:15:00,66.5,58.3,30.02,South,189,1.0,1.0,75,0.00,,,0.00,0,Wunderground v.1.15,2013-07-30 02:15:00,
2013-07-29 21:20:00,66.4,58.2,30.02,South,185,2.0,3.0,75,0.00,,,0.00,0,Wunderground v.1.15,2013-07-30 02:20:00,
2013-07-29 21:25:00,66.3,58.5,30.02,South,190,2.0,3.0,76,0.00,,,0.00,0,Wunderground v.1.15,2013-07-30 02:25:00,
2013-07-29 21:30:00,66.2,58.0,30.02,South,190,1.0,1.0,75,0.00,,,0.00,0,Wunderground v.1.15,2013-07-30 02:30:00,
2013-07-29 21:40:00,65.9,58.1,30.02,South,190,0.0,0.0,76,0.00,,,0.00,0,Wunderground v.1.15,2013-07-30 02:40:00,
2013-07-29 21:45:00,65.9,57.7,30.03,South,190,1.0,1.0,75,0.00,,,0.00,0,Wunderground v.1.15,2013-07-30 02:45:00,
2013-07-29 22:00:00,65.9,57.7,30.03,SSE,157,2.0,3.0,75,0.00,,,0.00,0,Wunderground v.1.15,2013-07-30 03:00:00,
2013-07-29 22:05:00,65.9,57.4,30.03,South,191,3.0,4.0,74,0.00,,,0.00,0,Wunderground v.1.15,2013-07-30 03:05:00,
2013-07-29 22:10:00,66.0,57.1,30.03,SSE,161,2.0,4.0,73,0.00,,,0.00,0,Wunderground v.1.15,2013-07-30 03:10:00,
2013-07-29 22:20:00,66.0,57.8,30.03,SSE,155,3.0,3.0,75,0.00,,,0.00,0,Wunderground v.1.15,2013-07-30 03:20:00,
2013-07-29 22:25:00,65.8,57.3,30.03,SSE,151,4.0,6.0,74,0.00,,,0.00,0,Wunderground v.1.15,2013-07-30 03:25:00,
2013-07-29 22:30:00,65.8,57.7,30.04,SSW,200,5.0,5.0,75,0.00,,,0.00,0,Wunderground v.1.15,2013-07-30 03:30:00,
2013-07-29 22:35:00,66.2,56.5,30.04,SE,146,7.0,10.0,71,0.00,,,0.00,0,Wunderground v.1.15,2013-07-30 03:35:00,
2013-07-29 22:50:00,66.7,56.2,30.03,SSE,159,8.0,8.0,69,0.00,,,0.00,0,Wunderground v.1.15,2013-07-30 03:50:00,
2013-07-29 23:00:00,66.9,56.4,30.03,South,172,8.0,8.0,69,0.00,,,0.00,0,Wunderground v.1.15,2013-07-30 04:00:00,
2013-07-29 23:05:00,66.8,56.3,30.03,SSW,195,7.0,8.0,69,0.00,,,0.00,0,Wunderground v.1.15,2013-07-30 04:05:00,
2013-07-29 23:10:00,66.6,56.5,30.03,SSE,165,5.0,5.0,70,0.00,,,0.00,0,Wunderground v.1.15,2013-07-30 04:10:00,
2013-07-29 23:20:00,66.5,56.4,30.03,South,182,5.0,6.0,70,0.00,,,0.00,0,Wunderground v.1.15,2013-07-30 04:20:00,
2013-07-29 23:25:00,66.4,56.3,30.03,SSE,162,5.0,6.0,70,0.00,,,0.00,0,Wunderground v.1.15,2013-07-30 04:25:00,
2013-07-29 23:30:00,66.3,56.2,30.03,South,188,5.0,6.0,70,0.00,,,0.00,0,Wunderground v.1.15,2013-07-30 04:30:00,
2013-07-29 23:35:00,66.3,56.2,30.02,SSE,161,4.0,6.0,70,0.00,,,0.00,0,Wunderground v.1.15,2013-07-30 04:35:00,
2013-07-29 23:40:00,66.3,56.2,30.02,SSE,157,4.0,5.0,70,0.00,,,0.00,0,Wunderground v.1.15,2013-07-30 04:40:00,
2013-07-29 23:50:00,66.4,56.3,30.02,SSE,168,4.0,4.0,70,0.00,,,0.00,0,Wunderground v.1.15,2013-07-30 04:50:00,
2013-07-29 23:55:00,66.4,56.7,30.01,SE,144,4.0,4.0,71,0.00,,,0.00,0,Wunderground v.1.15,2013-07-30 04:55:00,